Wind_Speed
10 11 12 13 14 15 16 18 19 20 20 20 22 22 22 22 22 22 21 21 20 20 20 20 20 21 21 21 22 22 22 21 21 22 22 21 21 22 22 22 22 23 23
10 11 12 12 13 15 15 16 18 19 20 20 21 22 22 23 23 23 23 23 23 22 22 22 22 22 22 23 23 23 23 23 23 24 24 24 24 24 25 25 25 26 26
11 12 13 13 13 14 15 16 16 17 19 20 21 22 22 22 24 24 25 25 24 24 24 24 24 24 24 24 24 25 25 25 25 26 26 26 26 27 27 27 27 28 29
12 12 12 12 13 14 15 15 16 17 18 20 21 22 23 23 24 25 25 25 26 27 27 27 27 26 26 26 26 26 26 27 27 28 28 28 28 28 29 30 30 31 32
11 11 12 12 12 12 13 14 16 17 19 20 20 21 22 22 22 24 25 25 26 27 27 28 28 27 27 26 26 27 27 28 29 29 30 30 31 31 32 33 33 34 35
12 12 12 12 12 13 13 14 15 17 18 20 21 21 22 22 22 23 24 25 25 26 27 27 27 27 28 28 28 28 29 30 31 31 32 32 33 34 35 35 36 36 38
13 13 13 13 13 13 14 15 16 17 17 18 20 21 22 23 23 24 24 25 25 25 26 28 28 28 29 30 30 30 31 33 34 34 34 35 36 37 37 38 39 39 41
14 14 14 14 14 15 15 15 16 17 18 19 20 21 22 23 24 24 24 26 27 27 27 27 29 30 30 31 32 33 33 34 35 36 36 37 39 40 41 41 42 42 43
16 16 16 16 16 16 16 16 16 17 18 19 19 21 22 23 24 25 25 26 26 26 26 28 29 30 31 32 33 34 35 36 37 38 39 40 41 42 42 43 43 44 45
18 18 17 16 16 16 17 17 18 18 19 20 20 21 22 23 25 25 26 26 26 27 28 29 29 30 31 33 34 35 36 36 37 38 39 40 41 42 43 44 45 45 46
19 19 19 19 18 18 18 18 19 20 20 21 22 22 22 24 25 26 26 26 27 28 29 29 29 30 32 33 33 34 35 36 36 38 38 40 41 43 44 45 46 47 48
20 19 19 19 20 19 19 19 19 19 20 21 23 24 25 26 27 27 27 28 28 29 29 30 30 31 33 33 34 35 36 38 39 41 42 43 44 45 46 47 48 49 50
21 20 20 20 20 20 20 21 21 21 22 23 24 25 26 27 27 27 28 28 29 30 30 31 33 33 34 35 36 36 38 39 40 41 43 44 45 46 47 48 49 50 52
21 21 21 21 21 21 22 23 23 23 24 24 24 24 25 26 27 28 29 29 30 31 32 34 35 36 36 37 37 38 40 41 42 43 44 45 47 48 49 50 51 52 53
22 22 22 22 22 22 23 24 25 24 24 24 24 25 26 27 28 29 30 31 32 32 33 35 35 36 37 38 39 40 41 42 43 45 46 47 48 48 49 49 50 51 51
22 23 23 22 22 22 23 24 24 24 24 25 26 27 28 29 30 31 31 32 32 33 34 34 35 36 37 38 39 41 42 43 45 46 47 47 47 48 47 47 48 48 49
21 22 22 22 22 22 23 24 25 25 25 26 27 28 29 29 30 32 33 33 33 34 34 34 35 36 38 38 39 41 42 43 44 44 44 44 45 45 45 46 46 47 47
20 20 20 20 21 21 22 23 24 25 25 25 26 27 29 30 31 32 32 34 34 34 35 35 37 37 38 39 40 40 41 42 42 43 43 43 43 43 43 43 43 43 43
18 19 19 20 21 21 22 23 23 24 24 25 26 27 28 29 30 30 31 32 33 34 35 36 37 38 38 39 39 40 40 40 40 40 41 41 40 40 39 39 39 38 38
18 18 18 19 20 21 21 21 22 23 25 25 26 27 28 29 29 30 31 32 33 34 35 36 36 37 37 38 38 38 39 38 38 38 38 37 37 36 36 35 35 34 34
17 17 17 18 18 19 20 21 22 24 25 25 26 26 27 29 30 30 31 32 33 33 33 34 35 35 36 36 36 36 36 36 36 35 34 34 33 32 32 31 31 30 30
16 17 18 18 19 20 22 22 23 24 24 25 26 27 28 29 30 30 31 31 31 32 32 33 33 34 34 35 35 35 34 34 33 32 31 30 30 29 29 29 29 28 27
16 16 17 18 19 21 22 23 24 24 25 26 26 27 28 28 29 29 29 30 30 31 32 32 33 33 33 33 32 32 31 30 29 29 28 28 28 27 27 26 26 26 26
15 16 17 19 20 21 22 23 24 24 25 25 26 27 27 28 28 29 29 30 30 31 31 31 32 32 31 31 30 29 28 28 27 27 27 27 26 26 25 25 25 25 24
17 18 19 20 21 22 22 24 24 25 25 26 26 27 27 28 28 29 29 29 29 29 30 30 30 30 29 29 28 27 26 26 26 26 25 25 25 25 24 24 24 24 23
19 20 21 21 22 23 24 25 25 26 26 26 27 27 27 28 28 28 28 28 28 29 29 28 28 28 27 26 26 25 25 25 25 24 24 24 23 23 23 23 23 23 23
Wind_Direction
286 277 264 259 255 248 243 237 234 235 236 236 233 234 236 237 238 238 239 242 245 248 251 254 256 257 258 259 260 263 264 266 267 269 271 273 276 277 279 279 279 278 277
280 276 266 260 257 248 242 242 240 238 237 236 235 238 240 240 241 241 242 244 247 251 254 254 256 257 258 261 263 265 266 268 269 269 271 273 274 275 276 279 280 280 279
283 275 268 262 259 251 243 243 241 241 238 238 240 241 242 242 243 245 246 247 250 253 255 257 257 258 258 261 263 265 267 269 270 269 271 273 274 277 277 277 280 281 281
287 280 272 267 261 253 246 243 241 241 240 241 242 242 244 245 247 246 247 249 253 254 256 258 258 258 259 262 264 265 266 267 268 269 271 273 275 277 276 277 279 280 280
286 282 280 275 265 257 250 243 242 242 240 241 243 244 245 248 249 248 248 251 255 256 258 259 259 262 262 263 264 265 266 268 269 269 271 273 275 276 276 278 279 279 279
281 279 278 274 266 259 255 249 247 246 245 245 245 246 247 249 250 249 252 255 256 257 259 261 262 264 265 265 266 266 267 269 270 271 272 274 275 276 277 279 279 278 278
276 275 274 270 264 259 254 252 251 248 247 249 250 249 249 252 253 252 252 255 258 259 259 260 262 265 266 267 268 269 269 269 269 270 272 275 276 278 279 280 281 281 280
270 271 270 270 266 261 256 253 253 250 250 251 252 253 253 254 255 255 257 259 261 262 263 264 265 266 267 269 270 272 273 273 272 273 274 276 277 279 280 280 280 280 281
271 270 268 268 267 264 261 256 255 253 253 254 257 256 256 255 256 257 260 262 262 264 267 268 269 269 270 271 273 275 277 277 276 276 277 278 279 280 281 282 282 283 282
268 269 267 267 266 264 264 260 257 256 258 259 259 259 260 259 260 263 266 268 269 271 273 274 273 274 275 276 278 278 280 279 278 277 278 279 280 281 282 283 283 283 284
267 267 266 267 266 266 266 263 262 261 262 261 261 263 263 264 265 266 268 271 273 275 276 276 276 277 278 279 280 281 280 281 280 280 281 282 283 283 284 284 285 285 285
265 265 266 266 265 265 265 266 264 263 263 264 264 265 265 266 268 269 272 273 275 277 277 278 279 281 283 283 283 282 282 281 281 282 283 284 285 285 285 286 287 287 287
266 266 266 266 264 264 265 267 268 267 266 266 267 268 269 269 269 272 274 276 278 279 279 280 282 283 285 285 285 285 284 285 285 285 286 287 288 288 288 289 289 289 289
265 265 266 266 266 265 266 267 268 268 267 267 267 269 271 272 273 275 278 279 280 281 282 283 283 284 286 287 288 288 287 287 288 289 289 289 289 290 290 290 290 290 290
264 265 267 269 267 268 268 268 270 271 271 270 271 273 275 275 276 279 280 282 284 286 287 287 286 287 288 289 289 289 288 288 289 290 290 290 291 291 291 291 291 291 291
265 265 267 268 267 268 269 271 272 273 273 274 276 277 278 278 279 282 284 286 288 289 289 289 290 290 291 290 290 291 290 290 291 292 292 293 293 293 293 293 293 293 293
267 266 267 268 269 270 272 273 274 275 276 276 276 278 280 282 283 285 287 289 290 290 290 290 291 292 291 291 292 293 293 294 295 295 295 295 295 295 294 294 294 294 294
269 269 268 269 270 272 275 276 277 278 278 279 279 280 281 283 285 288 289 291 292 292 292 292 293 293 294 295 296 296 297 297 297 297 297 297 296 296 296 297 296 296 296
270 270 270 272 274 276 277 277 277 279 280 281 280 281 284 286 287 289 291 292 293 294 295 295 295 296 297 298 299 300 300 299 298 298 299 299 299 299 299 299 299 299 299
272 272 273 276 279 279 278 278 279 280 280 281 283 283 284 287 289 291 292 294 295 295 296 297 299 301 301 302 302 302 301 301 301 301 300 300 300 301 301 301 301 302 302
272 275 278 279 279 280 282 282 283 283 284 285 287 288 288 290 292 293 294 295 297 298 299 301 302 303 303 303 303 303 303 303 302 302 301 301 302 303 304 304 304 305 305
276 279 279 280 282 283 283 285 287 288 290 290 291 292 293 294 295 297 299 300 301 301 301 303 303 304 304 304 304 304 303 303 303 302 302 303 304 305 306 306 307 307 308
281 282 282 283 285 288 291 292 292 293 295 296 296 297 298 299 300 301 301 302 302 302 302 304 304 305 306 305 305 304 304 303 303 303 304 304 305 306 307 308 309 310 310
284 287 288 291 292 294 296 297 296 296 297 298 299 300 300 301 302 302 302 302 302 303 303 304 304 305 305 306 305 305 305 305 305 305 305 305 306 307 308 309 310 312 312
289 291 294 297 298 299 300 301 301 300 300 300 300 301 301 302 302 303 304 304 304 304 304 305 305 306 306 305 305 305 306 306 306 307 307 307 306 307 307 308 310 311 312
296 298 299 301 302 302 302 302 302 301 301 301 301 302 302 303 303 303 304 304 304 305 306 306 306 306 306 305 305 305 305 306 307 308 308 309 308 307 307 308 310 311 312
Height
5843 5843 5843 5844 5844 5844 5845 5847 5848 5850 5852 5854 5857 5860 5862 5864 5865 5867 5868 5870 5871 5872 5872 5873 5873 5874 5875 5875 5875 5875 5875 5875 5875 5875 5875 5874 5874 5874 5873 5872 5871 5871 5870
5841 5841 5841 5841 5840 5841 5842 5843 5844 5846 5848 5850 5853 5855 5857 5859 5861 5862 5864 5865 5866 5867 5867 5868 5868 5869 5869 5869 5870 5870 5870 5869 5869 5869 5869 5868 5868 5867 5867 5866 5865 5864 5864
5838 5838 5838 5838 5837 5837 5838 5839 5841 5842 5844 5846 5848 5850 5852 5854 5855 5857 5858 5859 5860 5861 5862 5862 5863 5863 5863 5863 5863 5863 5863 5863 5863 5863 5862 5862 5861 5860 5860 5859 5858 5857 5856
5836 5835 5834 5835 5835 5835 5835 5836 5837 5838 5840 5842 5844 5845 5847 5848 5849 5851 5852 5853 5854 5855 5856 5856 5856 5857 5857 5857 5857 5857 5857 5856 5856 5855 5855 5854 5854 5853 5852 5851 5850 5849 5848
5833 5833 5832 5832 5832 5832 5832 5833 5834 5835 5836 5838 5839 5841 5842 5843 5844 5845 5846 5847 5848 5849 5849 5849 5850 5850 5850 5850 5850 5850 5850 5849 5849 5848 5848 5847 5846 5845 5844 5843 5842 5840 5839
5831 5830 5830 5830 5830 5829 5830 5830 5831 5831 5832 5833 5835 5836 5837 5838 5839 5840 5841 5841 5842 5842 5842 5842 5843 5843 5843 5843 5843 5843 5842 5842 5841 5840 5839 5839 5837 5836 5835 5833 5832 5831 5829
5828 5828 5827 5827 5827 5827 5827 5827 5827 5828 5829 5829 5830 5831 5832 5833 5834 5835 5835 5835 5835 5835 5835 5835 5836 5836 5836 5836 5835 5835 5834 5833 5832 5831 5830 5829 5828 5827 5825 5824 5822 5820 5818
5825 5825 5824 5824 5824 5823 5823 5823 5824 5824 5825 5825 5825 5826 5827 5828 5828 5829 5829 5829 5829 5829 5829 5828 5828 5828 5828 5827 5827 5826 5825 5824 5823 5822 5821 5819 5818 5816 5815 5813 5811 5809 5807
5821 5821 5820 5820 5820 5820 5820 5820 5820 5820 5820 5821 5821 5821 5822 5822 5822 5823 5823 5823 5822 5822 5822 5821 5821 5820 5820 5819 5818 5817 5816 5815 5814 5812 5811 5809 5807 5805 5803 5802 5799 5797 5794
5816 5816 5816 5816 5816 5816 5815 5815 5815 5816 5816 5816 5816 5816 5816 5816 5817 5817 5817 5816 5816 5815 5815 5814 5813 5812 5812 5811 5809 5808 5806 5804 5803 5802 5800 5798 5796 5794 5792 5789 5787 5784 5781
5811 5811 5811 5811 5811 5811 5811 5811 5811 5811 5811 5811 5811 5811 5811 5811 5811 5810 5810 5810 5809 5808 5807 5806 5805 5804 5803 5801 5800 5798 5796 5794 5793 5791 5789 5787 5784 5782 5779 5776 5773 5770 5767
5805 5805 5805 5805 5806 5806 5806 5806 5806 5806 5806 5806 5805 5805 5805 5804 5804 5803 5803 5802 5801 5800 5799 5797 5796 5795 5793 5792 5790 5788 5786 5784 5781 5779 5777 5774 5771 5768 5765 5762 5759 5756 5752
5800 5800 5800 5800 5800 5800 5801 5801 5800 5800 5800 5800 5799 5799 5798 5798 5797 5796 5796 5795 5793 5792 5790 5789 5787 5786 5784 5782 5780 5777 5775 5773 5770 5767 5764 5761 5758 5755 5751 5748 5744 5741 5737
5794 5794 5794 5794 5794 5794 5794 5794 5794 5794 5794 5793 5793 5792 5791 5791 5790 5789 5788 5786 5785 5783 5781 5780 5778 5776 5774 5771 5769 5766 5764 5761 5758 5755 5752 5749 5745 5741 5737 5733 5729 5725 5721
5788 5788 5788 5788 5788 5788 5788 5788 5788 5787 5787 5787 5786 5785 5785 5784 5783 5781 5780 5778 5776 5774 5772 5770 5768 5765 5763 5760 5758 5755 5752 5749 5746 5743 5739 5735 5731 5727 5723 5719 5714 5710 5706
5782 5782 5782 5782 5782 5781 5781 5781 5780 5780 5780 5780 5779 5779 5777 5776 5775 5773 5771 5769 5767 5765 5762 5760 5757 5755 5752 5749 5746 5743 5740 5736 5733 5729 5725 5721 5716 5712 5708 5704 5700 5695 5691
5776 5776 5775 5775 5775 5775 5775 5774 5774 5773 5773 5772 5771 5770 5769 5768 5766 5764 5762 5760 5758 5755 5753 5750 5747 5744 5741 5737 5734 5730 5727 5723 5719 5715 5711 5707 5702 5698 5694 5690 5686 5681 5676
5770 5769 5769 5769 5769 5768 5768 5767 5767 5766 5765 5764 5763 5762 5761 5759 5758 5756 5753 5751 5748 5745 5742 5739 5736 5733 5730 5726 5722 5718 5714 5710 5706 5702 5698 5694 5690 5685 5681 5676 5672 5667 5663
5764 5764 5764 5763 5763 5762 5761 5761 5760 5759 5758 5757 5755 5754 5752 5751 5749 5747 5744 5741 5738 5735 5732 5729 5726 5722 5718 5714 5710 5706 5702 5698 5694 5690 5686 5682 5677 5673 5669 5664 5660 5656 5651
5759 5758 5758 5757 5757 5756 5755 5754 5753 5752 5751 5749 5747 5746 5744 5742 5740 5737 5735 5732 5729 5725 5722 5719 5715 5711 5707 5703 5699 5695 5691 5687 5683 5679 5675 5671 5666 5662 5658 5654 5649 5645 5641
5753 5753 5753 5752 5751 5750 5749 5748 5746 5745 5743 5741 5740 5737 5735 5733 5731 5728 5725 5722 5719 5715 5712 5708 5704 5700 5696 5692 5688 5684 5680 5676 5673 5669 5665 5661 5657 5653 5649 5645 5640 5636 5632
5748 5748 5747 5747 5746 5744 5743 5741 5740 5738 5736 5734 5732 5729 5727 5724 5721 5718 5715 5712 5709 5706 5702 5698 5695 5691 5687 5683 5678 5674 5670 5666 5663 5659 5655 5652 5648 5644 5640 5637 5633 5628 5624
5743 5743 5742 5741 5740 5738 5737 5735 5733 5730 5728 5726 5724 5721 5718 5716 5713 5710 5707 5704 5700 5697 5693 5689 5685 5681 5677 5673 5669 5665 5661 5657 5654 5650 5647 5644 5640 5637 5633 5629 5625 5622 5618
5739 5738 5737 5735 5734 5732 5730 5728 5726 5723 5721 5718 5716 5713 5710 5708 5705 5701 5698 5695 5691 5687 5684 5680 5676 5672 5668 5664 5660 5656 5653 5649 5646 5643 5639 5636 5633 5629 5626 5622 5619 5615 5611
5734 5732 5731 5729 5727 5725 5723 5720 5718 5716 5713 5710 5708 5705 5702 5699 5696 5693 5689 5686 5682 5678 5675 5671 5667 5663 5659 5655 5652 5649 5645 5642 5639 5636 5632 5629 5626 5623 5619 5616 5612 5609 5605
5728 5726 5724 5722 5720 5718 5715 5713 5711 5708 5705 5702 5700 5697 5693 5690 5687 5684 5680 5677 5673 5670 5666 5662 5658 5655 5651 5648 5644 5641 5638 5635 5632 5629 5626 5622 5619 5616 5613 5610 5606 5603 5599